When you browse on this site, cookies collect data to enhance your experience and personalize the content and advertising you see.
Visit our Privacy Policy to learn more. By continuing to use the site, you agree to this use of cookies and data.
  • In Österreich
  • Länderverzeichnis
  • Für 7 Tage
  • Wassertemperatur
  • Satellitenkarten
  • Wetterkarte
  • News
  • Widgets
  • user-avatar
    Anmelden

    Stündliche Wetter Cairns

    Heute, 24 März, Sonntag

    Zeit Temperatur Niederschläge Wind Luftdruck Luftfeuchtigkeit
    00:00 +26°C° 0 mm 2 m/S 758 mmHg 97%
    01:00 +26°C° 0 mm 2 m/S 758 mmHg 97%
    02:00 +26°C° 0 mm 2 m/S 758 mmHg 97%
    03:00 +26°C° 0 mm 2 m/S 757 mmHg 97%
    04:00 +26°C° 0 mm 2 m/S 757 mmHg 98%
    05:00 +26°C° 0 mm 2 m/S 757 mmHg 97%
    06:00 +26°C° 0 mm 2 m/S 758 mmHg 97%
    07:00 +27°C° 0 mm 2 m/S 758 mmHg 97%
    08:00 +28°C° 0.1 mm 2 m/S 758 mmHg 90%
    09:00 +30°C° 0.1 mm 2 m/S 758 mmHg 83%
    10:00 +32°C° 0 mm 2 m/S 759 mmHg 74%
    11:00 +32°C° 0.4 mm 2 m/S 758 mmHg 77%
    12:00 +33°C° 0.4 mm 3 m/S 758 mmHg 79%
    13:00 +33°C° 0.4 mm 3 m/S 757 mmHg 82%
    14:00 +31°C° 0.9 mm 3 m/S 757 mmHg 85%
    15:00 +31°C° 0.9 mm 3 m/S 757 mmHg 88%
    16:00 +30°C° 0 mm 2 m/S 757 mmHg 91%
    17:00 +29°C° 0.8 mm 2 m/S 757 mmHg 93%
    18:00 +28°C° 0.8 mm 1 m/S 758 mmHg 95%
    19:00 +27°C° 0.8 mm 1 m/S 758 mmHg 97%
    20:00 +27°C° 0.2 mm 1 m/S 758 mmHg 97%
    21:00 +27°C° 0.2 mm 1 m/S 758 mmHg 98%
    22:00 +27°C° 0 mm 1 m/S 759 mmHg 98%
    23:00 +27°C° 0 mm 1 m/S 759 mmHg 98%

    Morgen, 25 März, Montag

    Zeit Temperatur Niederschläge Wind Luftdruck Luftfeuchtigkeit
    00:00 +26°C° 0 mm 1 m/S 758 mmHg 98%
    01:00 +26°C° 0 mm 2 m/S 758 mmHg 99%
    02:00 +26°C° 0 mm 2 m/S 758 mmHg 99%
    03:00 +26°C° 0 mm 2 m/S 758 mmHg 98%
    04:00 +26°C° 0 mm 2 m/S 758 mmHg 98%
    05:00 +26°C° 0 mm 2 m/S 758 mmHg 98%
    06:00 +26°C° 0 mm 2 m/S 758 mmHg 98%
    07:00 +26°C° 0 mm 2 m/S 758 mmHg 97%
    08:00 +28°C° 0 mm 2 m/S 758 mmHg 88%
    09:00 +30°C° 0 mm 2 m/S 759 mmHg 79%
    10:00 +32°C° 0 mm 2 m/S 759 mmHg 70%
    11:00 +34°C° 0 mm 2 m/S 758 mmHg 68%
    12:00 +34°C° 0 mm 3 m/S 758 mmHg 67%
    13:00 +35°C° 0 mm 3 m/S 757 mmHg 66%
    14:00 +34°C° 0 mm 3 m/S 757 mmHg 68%
    15:00 +34°C° 0 mm 3 m/S 757 mmHg 69%
    16:00 +33°C° 0 mm 3 m/S 756 mmHg 71%
    17:00 +31°C° 0 mm 2 m/S 757 mmHg 79%
    18:00 +29°C° 0 mm 2 m/S 757 mmHg 86%
    19:00 +28°C° 0 mm 1 m/S 758 mmHg 94%
    20:00 +28°C° 0.2 mm 1 m/S 758 mmHg 95%
    21:00 +27°C° 0.2 mm 1 m/S 759 mmHg 96%
    22:00 +27°C° 0.2 mm 1 m/S 759 mmHg 97%
    23:00 +27°C° 0 mm 1 m/S 759 mmHg 97%

    übermorgen, 26 März, Dienstag

    Zeit Temperatur Niederschläge Wind Luftdruck Luftfeuchtigkeit
    00:00 +27°C° 0 mm 1 m/S 759 mmHg 97%
    01:00 +27°C° 0 mm 1 m/S 759 mmHg 98%
    02:00 +27°C° 0 mm 1 m/S 758 mmHg 98%
    03:00 +27°C° 0 mm 1 m/S 758 mmHg 98%
    04:00 +27°C° 0 mm 1 m/S 758 mmHg 98%
    05:00 +27°C° 0.1 mm 1 m/S 758 mmHg 97%
    06:00 +27°C° 0.1 mm 2 m/S 758 mmHg 97%
    07:00 +27°C° 0.1 mm 2 m/S 759 mmHg 96%
    08:00 +29°C° 0.1 mm 2 m/S 759 mmHg 87%
    09:00 +31°C° 0.1 mm 2 m/S 759 mmHg 79%
    10:00 +32°C° 0.1 mm 2 m/S 759 mmHg 70%
    11:00 +34°C° 0.2 mm 2 m/S 759 mmHg 71%
    12:00 +34°C° 0.2 mm 2 m/S 758 mmHg 72%
    13:00 +34°C° 0.2 mm 3 m/S 757 mmHg 73%
    14:00 +33°C° 0.3 mm 3 m/S 757 mmHg 75%
    15:00 +32°C° 0.3 mm 2 m/S 756 mmHg 78%
    16:00 +31°C° 0.3 mm 2 m/S 756 mmHg 80%
    17:00 +30°C° 0 mm 2 m/S 756 mmHg 84%
    18:00 +29°C° 0 mm 1 m/S 757 mmHg 89%
    19:00 +28°C° 0 mm 1 m/S 757 mmHg 94%
    20:00 +28°C° 0 mm 1 m/S 758 mmHg 95%
    21:00 +27°C° 0 mm 1 m/S 758 mmHg 95%
    22:00 +27°C° 0 mm 1 m/S 759 mmHg 96%
    23:00 +27°C° 0.1 mm 1 m/S 759 mmHg 97%

    27 März, Mittwoch

    Zeit Temperatur Niederschläge Wind Luftdruck Luftfeuchtigkeit
    00:00 +27°C° 0.1 mm 1 m/S 758 mmHg 97%
    01:00 +27°C° 0.1 mm 1 m/S 758 mmHg 97%
    02:00 +27°C° 0.1 mm 1 m/S 758 mmHg 98%
    03:00 +27°C° 0.1 mm 1 m/S 757 mmHg 98%
    04:00 +27°C° 0.1 mm 1 m/S 757 mmHg 98%
    05:00 +27°C° 0.1 mm 1 m/S 757 mmHg 98%
    06:00 +27°C° 0.1 mm 1 m/S 758 mmHg 98%
    07:00 +27°C° 0.1 mm 1 m/S 758 mmHg 97%
    08:00 +29°C° 0.1 mm 1 m/S 758 mmHg 89%
    09:00 +30°C° 0.1 mm 1 m/S 759 mmHg 81%
    10:00 +32°C° 0.1 mm 2 m/S 759 mmHg 72%
    11:00 +34°C° 0.1 mm 2 m/S 758 mmHg 69%
    12:00 +34°C° 0.1 mm 2 m/S 757 mmHg 66%
    13:00 +35°C° 0.1 mm 3 m/S 757 mmHg 64%
    14:00 +34°C° 0 mm 3 m/S 756 mmHg 66%
    15:00 +34°C° 0 mm 3 m/S 756 mmHg 68%
    16:00 +33°C° 0 mm 3 m/S 755 mmHg 70%
    17:00 +31°C° 0 mm 2 m/S 756 mmHg 78%
    18:00 +29°C° 0 mm 2 m/S 756 mmHg 87%
    19:00 +28°C° 0 mm 1 m/S 757 mmHg 95%
    20:00 +27°C° 0.2 mm 1 m/S 757 mmHg 96%
    21:00 +25°C° 0.2 mm 0 m/S 758 mmHg 96%
    22:00 +25°C° 0.2 mm 0 m/S 758 mmHg 97%
    23:00 +25°C° 0.2 mm 0 m/S 758 mmHg 97%

    28 März, Donnerstag

    Zeit Temperatur Niederschläge Wind Luftdruck Luftfeuchtigkeit
    00:00 +25°C° 0.2 mm 0 m/S 757 mmHg 98%
    01:00 +25°C° 0.2 mm 0 m/S 757 mmHg 98%
    02:00 +25°C° 0 mm 0 m/S 756 mmHg 98%
    03:00 +25°C° 0 mm 0 m/S 756 mmHg 98%
    04:00 +24°C° 0 mm 0 m/S 756 mmHg 98%
    05:00 +24°C° 0 mm 0 m/S 756 mmHg 98%
    06:00 +27°C° 0 mm 1 m/S 756 mmHg 97%
    07:00 +27°C° 0 mm 1 m/S 757 mmHg 97%
    08:00 +29°C° 0 mm 1 m/S 757 mmHg 87%
    09:00 +31°C° 0 mm 1 m/S 758 mmHg 78%
    10:00 +33°C° 0 mm 1 m/S 758 mmHg 69%
    11:00 +33°C° 0.2 mm 1 m/S 757 mmHg 69%
    12:00 +34°C° 0.2 mm 2 m/S 756 mmHg 70%
    13:00 +34°C° 0.2 mm 2 m/S 756 mmHg 70%
    14:00 +34°C° 0.1 mm 2 m/S 755 mmHg 70%
    15:00 +34°C° 0.1 mm 2 m/S 755 mmHg 71%
    16:00 +33°C° 0.1 mm 3 m/S 754 mmHg 71%
    17:00 +31°C° 0 mm 2 m/S 755 mmHg 78%
    18:00 +29°C° 0 mm 2 m/S 755 mmHg 86%
    19:00 +28°C° 0 mm 1 m/S 756 mmHg 94%
    20:00 +27°C° 0.1 mm 1 m/S 756 mmHg 95%
    21:00 +27°C° 0.1 mm 1 m/S 757 mmHg 96%
    22:00 +25°C° 0.1 mm 0 m/S 757 mmHg 97%
    23:00 +25°C° 0 mm 0 m/S 757 mmHg 97%

    29 März, Freitag

    Zeit Temperatur Niederschläge Wind Luftdruck Luftfeuchtigkeit
    00:00 +25°C° 0 mm 0 m/S 757 mmHg 97%
    01:00 +27°C° 0 mm 1 m/S 756 mmHg 97%
    02:00 +27°C° 0 mm 1 m/S 756 mmHg 97%
    03:00 +24°C° 0 mm 0 m/S 756 mmHg 97%
    04:00 +24°C° 0 mm 0 m/S 755 mmHg 97%
    05:00 +24°C° 0.1 mm 0 m/S 756 mmHg 97%
    06:00 +25°C° 0.1 mm 0 m/S 756 mmHg 96%
    07:00 +27°C° 0.1 mm 1 m/S 757 mmHg 95%
    08:00 +29°C° 0.4 mm 1 m/S 757 mmHg 88%
    09:00 +30°C° 0.4 mm 1 m/S 757 mmHg 81%
    10:00 +32°C° 0.4 mm 1 m/S 757 mmHg 73%
    11:00 +32°C° 1.2 mm 1 m/S 757 mmHg 78%
    12:00 +31°C° 1.2 mm 2 m/S 756 mmHg 83%
    13:00 +31°C° 1.2 mm 2 m/S 755 mmHg 88%
    14:00 +31°C° 0.5 mm 2 m/S 755 mmHg 86%
    15:00 +31°C° 0.5 mm 2 m/S 755 mmHg 85%
    16:00 +31°C° 0.5 mm 2 m/S 754 mmHg 83%
    17:00 +30°C° 0 mm 2 m/S 755 mmHg 87%
    18:00 +29°C° 0 mm 1 m/S 755 mmHg 90%
    19:00 +27°C° 0 mm 1 m/S 756 mmHg 94%
    20:00 +27°C° 0 mm 1 m/S 756 mmHg 95%
    21:00 +25°C° 0 mm 0 m/S 757 mmHg 95%
    22:00 +25°C° 0 mm 0 m/S 757 mmHg 96%
    23:00 +25°C° 0 mm 0 m/S 757 mmHg 96%
    Mehr zeigen